| time (UTC) | temp F | wind direction | speed MPH | gust MPH | rain 1hr in | rain 24hr in | rain mn in | humidity % | barometer mb |
| 20260901133205 | 74 | 224 | 6.0 | 16.0 | 0.00 | 0.32 | 0.01 | 52 | 1020.1 |
| 20260901132706 | 73 | 279 | 8.0 | 16.0 | 0.00 | 0.32 | 0.01 | 50 | 1020.1 |
| 20260901131705 | 73 | 236 | 9.0 | 17.0 | 0.00 | 0.32 | 0.01 | 50 | 1020.2 |
| 20260901131207 | 73 | 246 | 9.0 | 17.0 | 0.00 | 0.32 | 0.01 | 51 | 1020.3 |
| 20260901130705 | 73 | 227 | 10.0 | 16.0 | 0.00 | 0.32 | 0.01 | 49 | 1020.3 |
| 20260901130206 | 73 | 226 | 8.0 | 16.0 | 0.00 | 0.32 | 0.01 | 51 | 1020.3 |
| 20260901125706 | 73 | 233 | 6.0 | 15.0 | 0.00 | 0.32 | 0.01 | 52 | 1020.3 |
| 20260901125206 | 71 | 298 | 8.0 | 15.0 | 0.00 | 0.32 | 0.01 | 55 | 1020.4 |
| 20260901124705 | 72 | 243 | 9.0 | 15.0 | 0.00 | 0.32 | 0.01 | 51 | 1020.4 |
| 20260901123728 | 73 | 248 | 8.0 | 15.0 | 0.00 | 0.32 | 0.01 | 52 | 1020.5 |
| 20260901123205 | 74 | 245 | 8.0 | 15.0 | 0.00 | 0.32 | 0.01 | 53 | 1020.4 |
| 20260901122705 | 73 | 250 | 7.0 | 13.0 | 0.00 | 0.32 | 0.01 | 55 | 1020.5 |
| 20260901122205 | 72 | 253 | 6.0 | 15.0 | 0.00 | 0.32 | 0.01 | 55 | 1020.5 |
| 20260901121704 | 73 | 281 | 7.0 | 15.0 | 0.00 | 0.32 | 0.01 | 56 | 1020.6 |
| 20260901121205 | 72 | 253 | 7.0 | 13.0 | 0.00 | 0.32 | 0.01 | 58 | 1020.6 |
| 20260901120706 | 71 | 250 | 7.0 | 13.0 | 0.00 | 0.32 | 0.01 | 57 | 1020.5 |
| 20260901120205 | 71 | 226 | 9.0 | 14.0 | 0.00 | 0.32 | 0.01 | 58 | 1020.5 |
| 20260901115705 | 70 | 274 | 8.0 | 16.0 | 0.00 | 0.32 | 0.01 | 58 | 1020.5 |
| 20260901114705 | 70 | 265 | 10.0 | 17.0 | 0.00 | 0.32 | 0.01 | 59 | 1020.5 |
| 20260901114205 | 70 | 264 | 10.0 | 16.0 | 0.01 | 0.32 | 0.01 | 58 | 1020.6 |
| 20260901113204 | 70 | 259 | 8.0 | 14.0 | 0.01 | 0.33 | 0.01 | 60 | 1020.5 |
| 20260901112706 | 69 | 240 | 8.0 | 14.0 | 0.01 | 0.33 | 0.01 | 61 | 1020.5 |
| 20260901111705 | 69 | 253 | 9.0 | 15.0 | 0.01 | 0.33 | 0.01 | 62 | 1020.6 |
| 20260901110705 | 70 | 274 | 7.0 | 15.0 | 0.01 | 0.33 | 0.01 | 65 | 1020.7 |
| 20260901110206 | 69 | 262 | 7.0 | 15.0 | 0.01 | 0.33 | 0.01 | 64 | 1020.7 |
| 20260901105707 | 69 | 238 | 7.0 | 15.0 | 0.01 | 0.33 | 0.01 | 65 | 1020.9 |
| 20260901105205 | 69 | 271 | 7.0 | 15.0 | 0.01 | 0.33 | 0.01 | 65 | 1020.9 |
| 20260901104705 | 68 | 286 | 7.0 | 14.0 | 0.00 | 0.32 | 0.00 | 66 | 1020.9 |
| 20260901104205 | 68 | 245 | 6.0 | 13.0 | 0.00 | 0.32 | 0.00 | 66 | 1020.8 |
| 20260901103205 | 66 | 262 | 6.0 | 10.0 | 0.00 | 0.32 | 0.00 | 70 | 1021.1 |
| 20260901102705 | 66 | 239 | 5.0 | 10.0 | 0.00 | 0.32 | 0.00 | 70 | 1020.9 |
| 20260901102206 | 66 | 271 | 5.0 | 15.0 | 0.00 | 0.32 | 0.00 | 71 | 1021.1 |
| 20260901100706 | 66 | 241 | 5.0 | 11.0 | 0.00 | 0.32 | 0.00 | 72 | 1021.1 |
| 20260901100206 | 66 | 283 | 5.0 | 14.0 | 0.00 | 0.32 | 0.00 | 72 | 1021.2 |
| 20260901095705 | 66 | 151 | 6.0 | 14.0 | 0.00 | 0.32 | 0.00 | 74 | 1021.3 |
| 20260901094705 | 66 | 248 | 6.0 | 14.0 | 0.00 | 0.32 | 0.00 | 75 | 1020.9 |
| 20260901094205 | 66 | 269 | 6.0 | 15.0 | 0.00 | 0.32 | 0.00 | 74 | 1020.9 |
| 20260901093705 | 66 | 243 | 8.0 | 15.0 | 0.00 | 0.32 | 0.00 | 74 | 1021.2 |
| 20260901093205 | 66 | 246 | 7.0 | 15.0 | 0.00 | 0.32 | 0.00 | 73 | 1021.3 |
| 20260901092706 | 67 | 208 | 7.0 | 15.0 | 0.00 | 0.32 | 0.00 | 75 | 1021.2 |
| 20260901092205 | 65 | 252 | 8.0 | 15.0 | 0.00 | 0.32 | 0.00 | 75 | 1021.2 |
| 20260901091706 | 65 | 203 | 9.0 | 14.0 | 0.00 | 0.32 | 0.00 | 75 | 1021.3 |
| 20260901091206 | 65 | 226 | 9.0 | 14.0 | 0.00 | 0.32 | 0.00 | 75 | 1021.3 |
| 20260901090206 | 64 | 257 | 10.0 | 14.0 | 0.00 | 0.32 | 0.00 | 76 | 1021.2 |
| 20260901085705 | 63 | 234 | 9.0 | 16.0 | 0.00 | 0.32 | 0.00 | 78 | 1020.9 |
| 20260901085206 | 63 | 257 | 8.0 | 16.0 | 0.00 | 0.32 | 0.00 | 79 | 1020.9 |
| 20260901084706 | 63 | 253 | 8.0 | 14.0 | 0.00 | 0.32 | 0.00 | 79 | 1020.9 |
| 20260901084206 | 63 | 220 | 7.0 | 14.0 | 0.00 | 0.32 | 0.00 | 82 | 1020.9 |
| 20260901083705 | 62 | 250 | 7.0 | 13.0 | 0.00 | 0.32 | 0.00 | 83 | 1021.1 |
| 20260901083205 | 62 | 240 | 6.0 | 9.0 | 0.00 | 0.32 | 0.00 | 85 | 1020.9 |
| 20260901082705 | 62 | 229 | 5.0 | 9.0 | 0.00 | 0.32 | 0.00 | 86 | 1020.9 |
| 20260901082205 | 61 | 248 | 5.0 | 11.0 | 0.00 | 0.32 | 0.00 | 87 | 1020.9 |
| 20260901081705 | 61 | 260 | 6.0 | 11.0 | 0.00 | 0.32 | 0.00 | 89 | 1020.9 |
| 20260901081205 | 60 | 222 | 6.0 | 11.0 | 0.00 | 0.32 | 0.00 | 89 | 1021.1 |
| 20260901080706 | 60 | 231 | 5.0 | 8.0 | 0.00 | 0.32 | 0.00 | 90 | 1021.2 |
| 20260901080207 | 60 | 240 | 4.0 | 9.0 | 0.00 | 0.32 | 0.00 | 91 | 1021.2 |
| 20260901075705 | 60 | 243 | 4.0 | 9.0 | 0.00 | 0.32 | 0.00 | 91 | 1021.1 |
| 20260901075221 | 59 | 257 | 5.0 | 9.0 | 0.00 | 0.32 | 0.00 | 92 | 1021.1 |
| 20260901074705 | 59 | 276 | 4.0 | 9.0 | 0.00 | 0.32 | 0.00 | 92 | 1021.3 |
| 20260901074233 | 59 | 321 | 4.0 | 7.0 | 0.00 | 0.32 | 0.00 | 93 | 1021.1 |
| 20260901073206 | 58 | 298 | 4.0 | 7.0 | 0.00 | 0.32 | 0.00 | 94 | 1020.9 |
| 20260901072705 | 57 | 227 | 4.0 | 7.0 | 0.00 | 0.32 | 0.00 | 94 | 1020.8 |
| 20260901072206 | 57 | 257 | 4.0 | 7.0 | 0.00 | 0.32 | 0.00 | 94 | 1020.7 |
| 20260901071705 | 57 | 219 | 3.0 | 7.0 | 0.00 | 0.32 | 0.00 | 94 | 1020.7 |
| 20260901071206 | 57 | 239 | 3.0 | 7.0 | 0.00 | 0.32 | 0.00 | 94 | 1020.7 |
| 20260901070705 | 56 | 258 | 4.0 | 5.0 | 0.00 | 0.32 | 0.00 | 94 | 1020.7 |
| 20260901065205 | 56 | 245 | 4.0 | 7.0 | 0.00 | 0.32 | 0.00 | 94 | 1020.7 |
| 20260901064705 | 56 | 264 | 4.0 | 7.0 | 0.00 | 0.32 | 0.00 | 94 | 1020.6 |
| 20260901064205 | 56 | 246 | 4.0 | 7.0 | 0.00 | 0.32 | 0.00 | 94 | 1020.6 |
| 20260901063706 | 56 | 250 | 4.0 | 6.0 | 0.00 | 0.32 | 0.00 | 94 | 1020.6 |
| 20260901063206 | 56 | 255 | 4.0 | 6.0 | 0.00 | 0.32 | 0.00 | 94 | 1020.6 |
| 20260901062205 | 55 | 212 | 4.0 | 6.0 | 0.00 | 0.32 | 0.00 | 94 | 1020.4 |
| 20260901061705 | 55 | 239 | 2.0 | 6.0 | 0.00 | 0.32 | 0.00 | 94 | 1020.5 |
| 20260901061205 | 55 | 250 | 1.0 | 5.0 | 0.00 | 0.32 | 0.00 | 94 | 1020.5 |
| 20260901060705 | 54 | 269 | 2.0 | 4.0 | 0.00 | 0.32 | 0.00 | 94 | 1020.5 |
| 20260901060229 | 54 | 314 | 2.0 | 4.0 | 0.00 | 0.32 | 0.00 | 94 | 1020.5 |
| 20260901055706 | 54 | 293 | 2.0 | 4.0 | 0.00 | 0.32 | 0.00 | 94 | 1020.4 |
| 20260901055206 | 54 | 257 | 2.0 | 4.0 | 0.00 | 0.32 | 0.00 | 94 | 1020.4 |
| 20260901054706 | 54 | 284 | 1.0 | 2.0 | 0.00 | 0.32 | 0.00 | 93 | 1020.4 |
| 20260901054206 | 54 | 222 | 1.0 | 2.0 | 0.00 | 0.32 | 0.00 | 93 | 1020.3 |
| 20260901053706 | 54 | 269 | 0.0 | 2.0 | 0.00 | 0.32 | 0.00 | 93 | 1020.4 |
| 20260901053205 | 54 | 279 | 0.0 | 2.0 | 0.00 | 0.32 | 0.00 | 93 | 1020.3 |
| 20260901052705 | 54 | 269 | 1.0 | 2.0 | 0.00 | 0.32 | 0.00 | 93 | 1020.4 |
| 20260901051705 | 54 | 269 | 0.0 | 3.0 | 0.00 | 0.32 | 0.00 | 93 | 1020.4 |
| 20260901051205 | 54 | 46 | 0.0 | 3.0 | 0.00 | 0.32 | 0.00 | 93 | 1020.3 |
| 20260901050205 | 54 | 252 | 1.0 | 3.0 | 0.00 | 0.32 | 0.00 | 93 | 1020.4 |
| 20260901045705 | 54 | 269 | 1.0 | 3.0 | 0.00 | 0.32 | 0.00 | 93 | 1020.3 |
| 20260901045205 | 54 | 269 | 1.0 | 3.0 | 0.00 | 0.32 | 0.00 | 93 | 1020.3 |
| 20260901044705 | 54 | 1 | 1.0 | 2.0 | 0.00 | 0.32 | 0.00 | 93 | 1020.3 |
| 20260901044205 | 54 | 340 | 0.0 | 4.0 | 0.00 | 0.32 | 0.00 | 93 | 1020.3 |
| 20260901043705 | 54 | 295 | 1.0 | 4.0 | 0.00 | 0.32 | 0.00 | 93 | 1020.3 |
| 20260901043206 | 54 | 135 | 2.0 | 4.0 | 0.00 | 0.32 | 0.00 | 93 | 1020.2 |
| 20260901042706 | 54 | 170 | 2.0 | 4.0 | 0.00 | 0.32 | 0.00 | 93 | 1020.2 |
| 20260901042204 | 54 | 207 | 2.0 | 3.0 | 0.00 | 0.32 | 0.00 | 93 | 1020.2 |
| 20260901041705 | 54 | 190 | 2.0 | 3.0 | 0.00 | 0.32 | 0.00 | 93 | 1020.1 |
| 20260901040705 | 54 | 135 | 1.0 | 3.0 | 0.00 | 0.32 | 0.00 | 93 | 1020.1 |
| 20260901040205 | 54 | 135 | 1.0 | 4.0 | 0.00 | 0.32 | 0.00 | 93 | 1020.0 |
| 20260901035705 | 55 | 117 | 1.0 | 4.0 | 0.00 | 0.32 | 0.00 | 93 | 1020.0 |
| 20260901035206 | 55 | 1 | 1.0 | 4.0 | 0.00 | 0.32 | 0.00 | 93 | 1020.0 |
| 20260901034705 | 55 | 178 | 2.0 | 4.0 | 0.00 | 0.32 | 0.00 | 93 | 1020.0 |
| 20260901034206 | 55 | 135 | 2.0 | 4.0 | 0.00 | 0.32 | 0.00 | 93 | 1020.0 |
| 20260901033705 | 55 | 222 | 1.0 | 3.0 | 0.00 | 0.32 | 0.00 | 93 | 1020.0 |
| 20260901033206 | 55 | 193 | 1.0 | 4.0 | 0.00 | 0.32 | 0.00 | 93 | 1019.9 |
| 20260901032706 | 55 | 32 | 1.0 | 4.0 | 0.00 | 0.32 | 0.00 | 93 | 1020.0 |
| 20260901032205 | 55 | 269 | 1.0 | 4.0 | 0.00 | 0.32 | 0.00 | 93 | 1019.9 |
| 20260901031705 | 55 | 81 | 1.0 | 4.0 | 0.00 | 0.32 | 0.00 | 93 | 1019.9 |
| 20260901031205 | 55 | 35 | 1.0 | 4.0 | 0.00 | 0.32 | 0.00 | 93 | 1019.8 |
| 20260901030705 | 55 | 156 | 1.0 | 3.0 | 0.00 | 0.32 | 0.00 | 93 | 1019.8 |
| 20260901030205 | 55 | 46 | 1.0 | 3.0 | 0.00 | 0.32 | 0.00 | 93 | 1019.9 |
| 20260901025706 | 55 | 178 | 2.0 | 3.0 | 0.00 | 0.32 | 0.00 | 93 | 1019.8 |
| 20260901025205 | 55 | 79 | 1.0 | 2.0 | 0.00 | 0.32 | 0.00 | 93 | 1019.9 |
| 20260901024705 | 55 | 68 | 1.0 | 2.0 | 0.00 | 0.32 | 0.00 | 93 | 1019.9 |
| 20260901024206 | 55 | 151 | 1.0 | 2.0 | 0.00 | 0.32 | 0.00 | 93 | 1019.8 |
| 20260901023705 | 56 | 15 | 1.0 | 2.0 | 0.00 | 0.32 | 0.00 | 93 | 1019.8 |
| 20260901023205 | 56 | 46 | 1.0 | 3.0 | 0.00 | 0.32 | 0.00 | 93 | 1019.8 |
| 20260901021205 | 56 | 169 | 1.0 | 5.0 | 0.00 | 0.32 | 0.00 | 93 | 1019.6 |
| 20260901020705 | 56 | 295 | 2.0 | 5.0 | 0.00 | 0.32 | 0.00 | 93 | 1019.7 |
| 20260901020205 | 56 | 197 | 2.0 | 4.0 | 0.00 | 0.32 | 0.00 | 93 | 1019.6 |
| 20260901015705 | 56 | 121 | 1.0 | 4.0 | 0.00 | 0.32 | 0.00 | 93 | 1019.7 |
| 20260901015205 | 56 | 20 | 2.0 | 5.0 | 0.00 | 0.32 | 0.00 | 93 | 1019.6 |
| 20260901014706 | 56 | 130 | 3.0 | 5.0 | 0.00 | 0.33 | 0.00 | 93 | 1019.6 |
| 20260901013206 | 56 | 100 | 1.0 | 3.0 | 0.00 | 0.33 | 0.00 | 92 | 1019.4 |
| 20260901012705 | 56 | 233 | 1.0 | 3.0 | 0.00 | 0.33 | 0.00 | 92 | 1019.3 |
| 20260901012206 | 56 | 108 | 1.0 | 3.0 | 0.00 | 0.34 | 0.00 | 93 | 1019.2 |
| 20260901011705 | 56 | 222 | 1.0 | 3.0 | 0.00 | 0.35 | 0.00 | 93 | 1019.3 |
| 20260901011205 | 56 | 283 | 1.0 | 3.0 | 0.00 | 0.41 | 0.00 | 92 | 1019.3 |
| 20260901010705 | 56 | 295 | 1.0 | 3.0 | 0.00 | 0.42 | 0.00 | 92 | 1019.3 |
| 20260901004705 | 57 | 295 | 1.0 | 3.0 | 0.00 | 0.43 | 0.00 | 92 | 1019.3 |
| 20260901004205 | 57 | 222 | 1.0 | 2.0 | 0.00 | 0.43 | 0.00 | 92 | 1019.2 |
| 20260901003706 | 57 | 231 | 1.0 | 2.0 | 0.00 | 0.43 | 0.00 | 92 | 1019.1 |
| 20260901003205 | 57 | 314 | 1.0 | 3.0 | 0.01 | 0.43 | 0.00 | 92 | 1019.1 |
| 20260901002705 | 57 | 178 | 1.0 | 3.0 | 0.01 | 0.43 | 0.00 | 92 | 1019.1 |
| 20260901001705 | 57 | 231 | 0.0 | 1.0 | 0.01 | 0.43 | 0.00 | 92 | 1019.1 |
| 20260901001206 | 57 | 46 | 0.0 | 3.0 | 0.01 | 0.43 | 0.00 | 92 | 1019.0 |
| 20260901000705 | 57 | 222 | 1.0 | 3.0 | 0.01 | 0.43 | 0.43 | 92 | 1019.0 |
| 20260901000205 | 57 | 46 | 1.0 | 3.0 | 0.01 | 0.43 | 0.43 | 92 | 1019.0 |
| 20260831235705 | 57 | 269 | 1.0 | 3.0 | 0.01 | 0.43 | 0.43 | 92 | 1019.0 |
| 20260831235206 | 58 | 286 | 1.0 | 2.0 | 0.01 | 0.43 | 0.43 | 92 | 1018.9 |
| 20260831234706 | 58 | 28 | 1.0 | 2.0 | 0.01 | 0.43 | 0.43 | 92 | 1019.0 |
| 20260831234205 | 58 | 1 | 1.0 | 3.0 | 0.01 | 0.43 | 0.43 | 92 | 1019.0 |
| 20260831233705 | 58 | 321 | 1.0 | 3.0 | 0.01 | 0.43 | 0.43 | 92 | 1019.0 |
| 20260831233205 | 58 | 197 | 2.0 | 3.0 | 0.00 | 0.43 | 0.43 | 92 | 1018.9 |
| 20260831232705 | 58 | 295 | 1.0 | 3.0 | 0.00 | 0.43 | 0.43 | 92 | 1018.9 |
| 20260831232206 | 58 | 347 | 1.0 | 6.0 | 0.00 | 0.43 | 0.43 | 92 | 1018.9 |
| 20260831231206 | 58 | 314 | 2.0 | 5.0 | 0.00 | 0.43 | 0.43 | 92 | 1018.8 |
| 20260831230705 | 58 | 331 | 3.0 | 5.0 | 0.00 | 0.43 | 0.43 | 92 | 1018.7 |
| 20260831230206 | 58 | 324 | 3.0 | 4.0 | 0.00 | 0.43 | 0.43 | 92 | 1018.6 |
| 20260831225706 | 58 | 311 | 3.0 | 4.0 | 0.00 | 0.43 | 0.43 | 92 | 1018.6 |
| 20260831224705 | 58 | 317 | 2.0 | 5.0 | 0.00 | 0.43 | 0.43 | 92 | 1018.7 |
| 20260831223706 | 58 | 259 | 2.0 | 6.0 | 0.00 | 0.43 | 0.43 | 91 | 1018.7 |
| 20260831222705 | 59 | 222 | 3.0 | 6.0 | 0.00 | 0.43 | 0.43 | 91 | 1018.5 |
| 20260831222205 | 59 | 276 | 3.0 | 3.0 | 0.00 | 0.43 | 0.43 | 91 | 1018.5 |
| 20260831221205 | 59 | 257 | 2.0 | 3.0 | 0.00 | 0.43 | 0.43 | 91 | 1018.4 |
| 20260831220703 | 59 | 226 | 1.0 | 3.0 | 0.00 | 0.43 | 0.43 | 91 | 1018.5 |
| 20260831220205 | 59 | 257 | 1.0 | 4.0 | 0.00 | 0.43 | 0.43 | 91 | 1018.4 |
| 20260831215206 | 59 | 222 | 1.0 | 8.0 | 0.00 | 0.43 | 0.43 | 91 | 1018.4 |
| 20260831214705 | 59 | 1 | 2.0 | 8.0 | 0.00 | 0.43 | 0.43 | 91 | 1018.4 |
| 20260831214205 | 59 | 253 | 3.0 | 10.0 | 0.06 | 0.43 | 0.43 | 91 | 1018.4 |
| 20260831213706 | 59 | 260 | 5.0 | 10.0 | 0.06 | 0.43 | 0.43 | 91 | 1018.3 |
| 20260831213205 | 59 | 222 | 6.0 | 10.0 | 0.06 | 0.43 | 0.43 | 91 | 1018.3 |
| 20260831212706 | 59 | 231 | 6.0 | 10.0 | 0.06 | 0.43 | 0.43 | 91 | 1018.3 |
| 20260831211706 | 59 | 238 | 2.0 | 5.0 | 0.06 | 0.43 | 0.43 | 91 | 1018.3 |
| 20260831210705 | 59 | 160 | 1.0 | 3.0 | 0.06 | 0.43 | 0.43 | 91 | 1018.3 |
| 20260831210233 | 60 | 205 | 1.0 | 7.0 | 0.06 | 0.43 | 0.43 | 91 | 1018.2 |
| 20260831205705 | 60 | 269 | 1.0 | 7.0 | 0.06 | 0.43 | 0.43 | 91 | 1018.3 |
| 20260831205206 | 60 | 269 | 2.0 | 7.0 | 0.06 | 0.43 | 0.43 | 90 | 1018.3 |
| 20260831204705 | 60 | 201 | 3.0 | 7.0 | 0.06 | 0.43 | 0.43 | 90 | 1018.3 |
| 20260831204206 | 60 | 229 | 4.0 | 5.0 | 0.00 | 0.43 | 0.43 | 90 | 1018.3 |
| 20260831202705 | 60 | 233 | 3.0 | 7.0 | 0.09 | 0.37 | 0.37 | 90 | 1017.8 |
| 20260831202206 | 60 | 219 | 4.0 | 11.0 | 0.12 | 0.37 | 0.37 | 90 | 1017.7 |
| 20260831201705 | 60 | 227 | 5.0 | 13.0 | 0.12 | 0.37 | 0.37 | 90 | 1017.6 |
| 20260831201205 | 60 | 252 | 6.0 | 15.0 | 0.21 | 0.37 | 0.37 | 90 | 1017.5 |
| 20260831200705 | 60 | 203 | 7.0 | 15.0 | 0.21 | 0.37 | 0.37 | 90 | 1017.4 |
| 20260831200205 | 60 | 199 | 9.0 | 14.0 | 0.21 | 0.37 | 0.37 | 90 | 1017.2 |
| 20260831195207 | 60 | 224 | 7.0 | 14.0 | 0.21 | 0.37 | 0.37 | 89 | 1017.2 |
| 20260831194705 | 60 | 239 | 7.0 | 14.0 | 0.21 | 0.37 | 0.37 | 89 | 1017.2 |
| 20260831194205 | 60 | 253 | 8.0 | 20.0 | 0.22 | 0.37 | 0.37 | 89 | 1017.3 |
| 20260831193705 | 60 | 257 | 8.0 | 20.0 | 0.22 | 0.37 | 0.37 | 89 | 1017.3 |
| 20260831193206 | 61 | 252 | 9.0 | 20.0 | 0.12 | 0.37 | 0.37 | 89 | 1017.3 |
| 20260831192705 | 61 | 214 | 10.0 | 20.0 | 0.12 | 0.27 | 0.27 | 89 | 1017.5 |
| 20260831192206 | 61 | 252 | 10.0 | 14.0 | 0.09 | 0.27 | 0.27 | 88 | 1017.7 |
| 20260831191706 | 61 | 222 | 9.0 | 14.0 | 0.09 | 0.24 | 0.19 | 88 | 1017.5 |
| 20260831191205 | 61 | 222 | 8.0 | 9.0 | 0.01 | 0.16 | 0.16 | 88 | 1017.2 |
| 20260831190705 | 61 | 222 | 6.0 | 9.0 | 0.01 | 0.16 | 0.16 | 87 | 1016.6 |
| 20260831190205 | 61 | 236 | 6.0 | 9.0 | 0.01 | 0.16 | 0.16 | 87 | 1016.8 |
| 20260831185705 | 61 | 207 | 5.0 | 9.0 | 0.01 | 0.16 | 0.16 | 87 | 1016.6 |
| 20260831185206 | 61 | 212 | 5.0 | 7.0 | 0.01 | 0.16 | 0.16 | 86 | 1016.5 |
| 20260831184705 | 61 | 199 | 4.0 | 7.0 | 0.01 | 0.16 | 0.16 | 86 | 1016.3 |
| 20260831184206 | 61 | 202 | 5.0 | 6.0 | 0.01 | 0.16 | 0.16 | 86 | 1016.5 |
| 20260831183705 | 61 | 210 | 4.0 | 6.0 | 0.01 | 0.15 | 0.15 | 86 | 1016.5 |
| 20260831183205 | 62 | 212 | 3.0 | 7.0 | 0.01 | 0.15 | 0.15 | 86 | 1016.4 |
| 20260831182705 | 62 | 194 | 3.0 | 7.0 | 0.01 | 0.15 | 0.15 | 86 | 1016.4 |
| 20260831182206 | 62 | 199 | 4.0 | 8.0 | 0.01 | 0.15 | 0.15 | 86 | 1016.4 |
| 20260831181705 | 62 | 210 | 5.0 | 9.0 | 0.01 | 0.15 | 0.15 | 86 | 1016.4 |
| 20260831181205 | 62 | 239 | 5.0 | 11.0 | 0.01 | 0.15 | 0.15 | 85 | 1016.3 |
| 20260831180704 | 62 | 220 | 5.0 | 11.0 | 0.01 | 0.15 | 0.15 | 85 | 1016.2 |
| 20260831180205 | 62 | 240 | 6.0 | 14.0 | 0.01 | 0.15 | 0.15 | 84 | 1016.3 |
| 20260831175706 | 62 | 207 | 7.0 | 14.0 | 0.01 | 0.15 | 0.15 | 84 | 1016.2 |
| 20260831175206 | 62 | 212 | 8.0 | 15.0 | 0.01 | 0.15 | 0.15 | 84 | 1016.2 |
| 20260831174706 | 62 | 226 | 9.0 | 15.0 | 0.01 | 0.15 | 0.15 | 83 | 1016.1 |
| 20260831174205 | 63 | 239 | 9.0 | 12.0 | 0.00 | 0.15 | 0.15 | 82 | 1016.1 |
| 20260831172206 | 63 | 229 | 8.0 | 15.0 | 0.00 | 0.14 | 0.14 | 79 | 1016.0 |
| 20260831171707 | 63 | 259 | 9.0 | 15.0 | 0.00 | 0.14 | 0.14 | 78 | 1015.9 |
| 20260831171205 | 63 | 262 | 8.0 | 14.0 | 0.00 | 0.14 | 0.14 | 77 | 1015.7 |
| 20260831170706 | 63 | 265 | 7.0 | 14.0 | 0.00 | 0.14 | 0.14 | 77 | 1015.6 |
| 20260831170233 | 63 | 259 | 8.0 | 14.0 | 0.02 | 0.14 | 0.14 | 76 | 1015.5 |
| 20260831165704 | 63 | 231 | 8.0 | 14.0 | 0.02 | 0.14 | 0.14 | 76 | 1015.6 |
| 20260831165225 | 64 | 220 | 8.0 | 17.0 | 0.02 | 0.14 | 0.14 | 75 | 1015.3 |
| 20260831164705 | 64 | 238 | 9.0 | 17.0 | 0.02 | 0.14 | 0.14 | 74 | 1015.4 |
| 20260831164207 | 64 | 214 | 10.0 | 24.0 | 0.02 | 0.14 | 0.14 | 74 | 1015.4 |
| 20260831163705 | 64 | 233 | 11.0 | 24.0 | 0.02 | 0.14 | 0.14 | 74 | 1015.6 |
| 20260831162206 | 65 | 222 | 13.0 | 14.0 | 0.02 | 0.14 | 0.14 | 80 | 1015.7 |
| 20260831161205 | 64 | 229 | 8.0 | 14.0 | 0.02 | 0.14 | 0.14 | 81 | 1015.7 |
| 20260831160706 | 65 | 281 | 6.0 | 14.0 | 0.02 | 0.14 | 0.14 | 77 | 1015.7 |
| 20260831160205 | 67 | 226 | 4.0 | 7.0 | 0.00 | 0.14 | 0.14 | 74 | 1015.7 |
| 20260831155705 | 67 | 250 | 3.0 | 7.0 | 0.00 | 0.12 | 0.12 | 73 | 1015.7 |
| 20260831155206 | 67 | 269 | 2.0 | 6.0 | 0.00 | 0.12 | 0.12 | 71 | 1015.3 |
| 20260831154705 | 67 | 276 | 2.0 | 6.0 | 0.00 | 0.12 | 0.12 | 70 | 1015.1 |
| 20260831154205 | 67 | 243 | 2.0 | 8.0 | 0.00 | 0.12 | 0.12 | 70 | 1015.1 |
| 20260831153205 | 67 | 305 | 3.0 | 12.0 | 0.00 | 0.12 | 0.12 | 70 | 1015.0 |
| 20260831152706 | 67 | 314 | 3.0 | 12.0 | 0.00 | 0.12 | 0.12 | 70 | 1015.0 |
| 20260831152206 | 67 | 277 | 5.0 | 19.0 | 0.00 | 0.12 | 0.12 | 70 | 1015.1 |
| 20260831151705 | 67 | 296 | 6.0 | 19.0 | 0.00 | 0.12 | 0.12 | 67 | 1015.0 |
| 20260831150205 | 70 | 252 | 6.0 | 20.0 | 0.00 | 0.12 | 0.12 | 62 | 1014.9 |
| 20260831145706 | 71 | 283 | 9.0 | 20.0 | 0.00 | 0.12 | 0.12 | 55 | 1014.7 |
| 20260831145206 | 71 | 236 | 12.0 | 19.0 | 0.00 | 0.12 | 0.12 | 52 | 1014.6 |
| 20260831144705 | 71 | 224 | 12.0 | 19.0 | 0.00 | 0.12 | 0.12 | 51 | 1014.4 |
| 20260831144205 | 71 | 226 | 12.0 | 20.0 | 0.00 | 0.12 | 0.12 | 51 | 1014.3 |
| 20260831143705 | 72 | 219 | 12.0 | 20.0 | 0.00 | 0.12 | 0.12 | 51 | 1014.4 |
| 20260831143206 | 72 | 207 | 12.0 | 19.0 | 0.00 | 0.12 | 0.12 | 51 | 1014.5 |
| 20260831142705 | 72 | 217 | 11.0 | 19.0 | 0.00 | 0.12 | 0.12 | 51 | 1014.5 |
| 20260831142206 | 72 | 257 | 11.0 | 19.0 | 0.00 | 0.12 | 0.12 | 51 | 1014.5 |
| 20260831141706 | 72 | 227 | 10.0 | 21.0 | 0.00 | 0.12 | 0.12 | 51 | 1014.5 |
| 20260831141206 | 72 | 236 | 11.0 | 28.0 | 0.00 | 0.12 | 0.12 | 51 | 1014.6 |
| 20260831140704 | 72 | 257 | 14.0 | 28.0 | 0.00 | 0.12 | 0.12 | 50 | 1014.5 |
| 20260831135706 | 72 | 210 | 15.0 | 28.0 | 0.00 | 0.12 | 0.12 | 50 | 1014.6 |
| 20260831135205 | 73 | 231 | 15.0 | 25.0 | 0.00 | 0.12 | 0.12 | 51 | 1014.5 |
| 20260831134705 | 72 | 229 | 14.0 | 25.0 | 0.00 | 0.12 | 0.12 | 50 | 1014.6 |
| 20260831134205 | 72 | 227 | 13.0 | 25.0 | 0.00 | 0.12 | 0.12 | 52 | 1014.6 |
| 20260831133704 | 72 | 246 | 13.0 | 21.0 | 0.00 | 0.12 | 0.12 | 52 | 1014.6 |